CAPE
10 0 10 55 54 41 28 96 124 122 123 110 48 18 19 22 55 4 0 0 0 0 0 0 0 0 0 0 0 0 0 0 0 0 0 0 0 0 0 0 0 0 0
6 0 5 124 90 64 99 87 80 101 108 140 39 0 2 23 15 0 0 0 0 0 0 0 0 0 0 0 0 0 0 0 0 0 0 0 0 0 0 0 0 0 0
69 54 40 124 145 164 165 160 164 198 115 80 42 2 0 0 0 0 0 0 0 0 0 0 0 0 0 0 0 1 2 3 7 1 0 1 0 0 0 0 0 2 0
134 111 202 131 156 236 194 148 99 38 0 0 0 0 0 0 0 0 0 0 0 0 0 0 0 0 0 0 6 6 6 10 11 9 0 0 0 0 0 0 0 0 0
148 154 111 155 87 84 40 27 12 0 0 0 0 0 0 0 0 0 0 0 6 0 0 0 0 0 0 0 0 2 11 11 13 7 0 0 0 0 0 0 0 0 1
0 0 0 0 0 0 0 0 0 0 0 0 0 0 0 0 0 0 0 18 24 11 0 0 0 0 0 0 0 0 4 16 30 29 0 0 0 0 0 0 0 0 0
0 0 0 0 0 0 0 0 0 0 0 0 0 0 0 0 0 0 0 20 41 25 20 0 0 0 0 0 0 2 5 7 0 0 0 0 0 0 0 0 0 0 0
0 0 0 0 0 0 0 0 0 0 0 0 0 12 71 93 9 0 0 39 86 76 39 0 0 0 0 0 0 1 2 3 1 0 0 0 0 0 0 0 0 0 0
0 0 0 0 5 13 23 45 31 33 42 104 134 186 229 316 140 19 0 204 172 205 87 39 0 0 0 0 0 4 8 0 0 0 0 0 0 0 0 0 0 0 0
0 0 8 19 42 78 130 136 129 123 173 195 238 316 351 390 321 176 4 278 294 262 120 46 0 0 0 0 0 0 6 3 0 0 0 0 0 0 0 0 0 0 0
0 0 0 24 58 113 166 183 216 219 216 207 255 351 395 468 672 294 54 295 391 265 112 97 0 0 0 0 0 0 0 0 1 16 0 0 0 0 0 8 0 0 0
0 0 33 64 69 78 275 250 203 148 134 181 271 399 240 657 464 299 36 17 50 170 206 151 0 0 0 0 0 0 0 0 0 1 0 0 0 0 0 0 0 0 0
0 18 50 71 143 179 177 150 110 135 145 129 94 127 159 279 617 239 105 18 16 9 62 64 0 0 0 0 0 0 0 0 0 0 0 0 1 0 0 0 0 0 0
17 36 45 56 158 186 90 33 32 57 64 56 100 154 174 247 400 546 530 387 56 25 20 12 0 0 0 0 0 0 0 0 0 0 0 0 0 0 6 0 0 0 0
0 0 20 20 26 23 29 18 29 137 85 94 121 192 202 223 278 164 60 174 203 65 15 20 3 2 0 0 0 0 0 0 0 0 0 0 0 0 0 4 0 0 0
0 0 0 0 0 0 0 2 0 0 0 6 14 21 45 17 9 1 1 7 24 29 10 14 49 37 16 2 0 0 0 0 0 0 0 0 0 0 0 0 12 78 0
0 0 0 0 0 0 0 0 4 0 0 7 19 18 15 6 11 22 9 13 14 30 34 35 88 74 42 34 11 0 0 0 0 0 0 0 0 0 0 0 0 19 44
0 0 0 0 0 0 0 0 11 23 26 83 61 31 22 27 27 25 11 1 14 23 38 71 122 126 97 77 51 33 10 0 0 0 0 0 1 0 0 0 0 14 58
1 0 0 0 0 0 0 4 14 33 86 136 178 109 132 37 0 0 0 2 41 130 177 116 130 156 131 84 68 57 47 6 1 0 0 0 0 0 0 0 0 0 2
0 0 0 0 0 0 6 20 61 114 178 201 245 247 187 74 99 109 103 135 101 88 129 213 275 235 174 139 88 66 52 31 10 2 0 0 0 0 0 0 0 0 0
0 0 0 0 0 13 31 63 127 194 269 226 186 153 32 47 42 39 48 67 63 70 90 145 165 158 161 118 86 87 2 8 5 6 7 0 0 0 0 0 0 0 0
1 2 9 12 12 27 93 163 215 257 265 232 123 94 8 1 12 11 9 0 2 17 26 25 12 19 24 21 10 20 13 5 12 3 8 2 1 0 0 0 1 0 0
12 9 32 85 88 38 119 210 246 263 261 225 141 62 25 9 5 3 0 0 0 2 6 7 6 2 0 1 3 0 0 5 1 4 8 0 8 9 6 0 0 0 0
0 33 114 198 185 125 123 159 189 78 76 41 17 0 0 0 0 0 0 0 25 10 1 0 0 0 0 0 0 0 0 0 1 7 3 6 0 2 4 11 0 0 0
14 79 155 240 295 322 274 183 108 59 3 0 2 1 1 0 0 2 20 11 14 1 0 4 3 7 11 8 9 5 11 10 2 13 8 2 2 0 1 0 1 0 0
71 133 183 198 139 77 55 30 14 0 1 27 18 10 21 3 6 28 54 39 28 17 12 8 6 0 0 0 0 0 0 0 0 0 0 0 0 0 0 12 10 2 2
CIN
-2 0 -78 -2 -2 -30 -15 -7 -1 -2 -5 -4 -7 -3 -6 -9 -1 -23 0 0 0 0 0 0 0 0 0 0 0 0 0 0 0 0 0 0 0 0 0 0 0 0 0
-143 0 -37 -3 -19 -36 -25 -17 -2 -2 -1 0 -6 -9 -22 -3 -1 0 0 0 0 0 0 0 0 0 0 0 0 0 0 0 0 0 0 0 0 0 0 0 0 0 0
-51 -34 -52 -21 -43 -11 0 0 0 0 -1 -6 -8 -5 0 0 0 0 0 0 0 0 0 0 0 0 0 0 0 0 0 0 0 0 0 0 0 0 0 0 0 0 0
-30 -26 0 -1 0 0 0 -6 -15 -54 -7 0 0 0 0 0 0 0 0 0 0 0 0 0 0 0 0 0 0 0 0 0 0 0 0 0 0 0 0 0 0 0 0
-3 -3 -1 0 -5 -9 -33 -114 -21 0 0 0 0 0 0 0 0 0 0 0 -21 0 0 0 0 0 0 0 0 0 0 0 0 0 0 0 0 0 0 0 0 0 0
0 0 0 -1 0 0 0 0 0 0 0 0 0 0 0 0 0 0 0 -24 -20 -19 0 0 0 0 0 0 0 0 0 0 0 0 0 0 0 0 0 0 0 0 0
0 0 0 0 0 0 0 0 0 0 0 0 0 0 0 0 0 0 0 -55 -34 -34 -37 0 0 0 0 0 0 0 0 0 0 0 0 0 0 0 0 0 0 0 0
0 0 0 0 0 0 0 0 0 0 0 0 0 -5 -22 -27 -94 0 0 -75 -45 -49 -51 0 0 0 0 0 0 0 0 0 0 0 0 0 0 0 0 0 0 0 0
0 0 0 0 -5 -9 -11 -26 -13 -14 -7 -5 -9 -18 -19 -30 -89 -134 0 -51 -37 -44 -52 -67 0 0 0 0 0 0 0 0 0 0 0 0 0 0 0 0 0 0 0
0 0 -8 -13 -12 -9 -11 -12 -12 -14 -12 -8 -13 -21 -39 -63 -103 -151 -210 -49 -38 -36 -53 -67 0 0 0 0 0 0 0 0 0 0 0 0 0 0 0 0 0 0 0
0 0 0 -17 -19 -15 -16 -15 -44 -16 -8 -15 -18 -24 -40 -63 -69 -141 -231 -111 -48 -38 -44 -33 0 0 0 0 0 0 0 0 0 0 0 0 0 0 0 0 0 0 0
0 0 -25 -24 -20 -9 -18 -33 -61 -16 -17 -18 -18 -16 -13 -28 -84 -141 -144 -26 -206 -116 -71 -41 0 0 0 0 0 0 0 0 0 0 0 0 0 0 0 0 0 0 0
0 -28 -25 -23 -16 -15 -19 -17 -10 -7 -7 -7 -3 -4 -4 -10 -18 -62 -103 -9 -7 -17 -133 -89 0 0 0 0 0 0 0 0 0 0 0 0 0 0 0 0 0 0 0
-43 -31 -23 -19 -12 -9 -11 -8 -10 -5 -2 -4 -5 -6 -5 -10 -14 -20 -32 -58 -71 -32 -30 -144 0 0 0 0 0 0 0 0 0 0 0 0 0 0 0 0 0 0 0
0 0 -10 -2 -6 -12 -13 -11 -8 -15 -23 -9 -8 -9 -12 -9 -9 -55 -51 -62 -50 -66 -12 -137 -45 -27 0 0 0 0 0 0 0 0 0 0 0 0 0 0 0 0 -1
0 0 0 0 0 0 0 -6 0 0 0 -8 -13 -30 -58 -94 -105 -15 -7 -11 -11 -20 -12 -13 -82 -54 -49 -26 0 0 0 0 0 0 0 0 0 0 0 0 0 0 0
0 0 0 0 0 0 0 0 -8 0 -3 -63 -56 -64 -60 -31 -10 -15 -8 -3 -13 -13 -5 -139 -78 -57 -52 -53 -55 0 0 0 0 0 0 0 0 0 0 0 0 0 0
0 0 0 0 0 0 0 0 -20 -14 -20 -15 -33 -58 -20 -17 -17 -20 -25 -6 -17 -7 -4 -94 -62 -50 -44 -45 -52 -48 -65 0 0 0 0 0 0 0 0 0 0 0 0
-22 0 0 0 0 0 0 -54 -39 -42 -37 -21 -23 -45 -46 -75 0 0 0 -7 -109 -56 -45 -79 -80 -64 -57 -61 -60 -56 -62 -67 -3 0 0 0 0 0 0 0 0 0 -1
0 0 0 0 0 0 -40 -48 -57 -41 -32 -30 -28 -24 -32 -57 -40 -35 -51 -81 -133 -110 -71 -52 -53 -58 -77 -108 -118 -79 -59 -53 -30 -1 0 0 0 0 0 0 0 0 0
0 0 0 0 0 -60 -46 -38 -30 -33 -33 -33 -45 -60 -127 -112 -76 -67 -74 -73 -95 -104 -96 -78 -52 -44 -57 -71 -78 -68 -148 0 -3 -3 0 0 0 0 0 0 0 0 0
-14 -2 -7 -9 -27 -33 -32 -39 -33 -32 -32 -31 -38 -50 -114 -53 -108 -104 -118 -2 -2 -88 -78 -81 -101 -80 -61 -49 -29 -51 -55 -2 -26 0 0 0 0 0 0 0 0 0 0
-2 -26 -45 -36 -39 -42 -71 -48 -35 -31 -27 -32 -41 -50 -65 -32 -1 -1 0 -1 -1 0 0 -1 -4 -6 0 0 0 0 -1 -5 -8 -2 0 0 0 0 0 0 0 0 0
-3 -46 -33 -31 -36 -32 -33 -30 -28 -67 -60 -23 -12 -2 0 0 0 0 -3 -7 -2 -1 0 0 0 0 0 0 0 0 0 0 0 -3 0 -1 0 0 0 0 0 0 0
-32 -33 -39 -33 -31 -32 -37 -43 -49 -53 -33 -7 -16 -3 -8 0 -8 -1 -22 0 -1 0 0 -1 0 0 0 0 0 0 -1 -1 -2 0 0 0 0 0 0 0 -1 0 0
-64 -54 -47 -50 -60 -95 -167 -7 0 0 -1 0 0 -13 -42 -54 -6 -7 -5 -3 0 0 0 -1 -1 0 0 0 0 0 0 0 0 0 0 0 0 0 0 0 0 0 -2
Wind_Speed
nan nan nan nan nan nan nan nan 25 30 36 48 nan nan nan nan nan nan nan nan nan nan nan nan nan nan nan nan nan nan nan nan nan nan nan nan nan nan nan nan nan nan nan
nan nan nan 40 nan nan nan nan nan 30 32 32 nan nan nan nan nan nan nan nan nan nan nan nan nan nan nan nan nan nan nan nan nan nan nan nan nan nan nan nan nan nan nan
nan nan nan 57 38 32 31 29 30 33 40 nan nan nan nan nan nan nan nan nan nan nan nan nan nan nan nan nan nan nan nan nan nan nan nan nan nan nan nan nan nan nan nan
42 43 37 36 36 35 34 33 nan nan nan nan nan nan nan nan nan nan nan nan nan nan nan nan nan nan nan nan nan nan nan nan nan nan nan nan nan nan nan nan nan nan nan
46 46 41 37 nan nan nan nan nan nan nan nan nan nan nan nan nan nan nan nan nan nan nan nan nan nan nan nan nan nan nan nan nan nan nan nan nan nan nan nan nan nan nan
nan nan nan nan nan nan nan nan nan nan nan nan nan nan nan nan nan nan nan nan nan nan nan nan nan nan nan nan nan nan nan nan nan nan nan nan nan nan nan nan nan nan nan
nan nan nan nan nan nan nan nan nan nan nan nan nan nan nan nan nan nan nan nan nan nan nan nan nan nan nan nan nan nan nan nan nan nan nan nan nan nan nan nan nan nan nan
nan nan nan nan nan nan nan nan nan nan nan nan nan nan nan nan nan nan nan nan nan nan nan nan nan nan nan nan nan nan nan nan nan nan nan nan nan nan nan nan nan nan nan
nan nan nan nan nan nan nan nan nan nan nan 33 36 35 37 40 48 nan nan 50 47 43 nan nan nan nan nan nan nan nan nan nan nan nan nan nan nan nan nan nan nan nan nan
nan nan nan nan nan nan 34 34 33 35 34 34 34 37 40 37 35 36 nan 39 37 37 37 nan nan nan nan nan nan nan nan nan nan nan nan nan nan nan nan nan nan nan nan
nan nan nan nan nan 32 33 31 29 28 28 29 29 31 32 33 27 28 nan 29 31 32 32 nan nan nan nan nan nan nan nan nan nan nan nan nan nan nan nan nan nan nan nan
nan nan nan nan nan nan 31 25 25 26 25 26 28 28 28 28 30 25 nan nan nan 29 30 31 nan nan nan nan nan nan nan nan nan nan nan nan nan nan nan nan nan nan nan
nan nan nan nan 25 22 19 17 20 22 22 23 nan 25 22 22 23 27 26 nan nan nan nan nan nan nan nan nan nan nan nan nan nan nan nan nan nan nan nan nan nan nan nan
nan nan nan nan 19 17 nan nan nan nan nan nan 20 20 21 20 19 21 21 21 nan nan nan nan nan nan nan nan nan nan nan nan nan nan nan nan nan nan nan nan nan nan nan
nan nan nan nan nan nan nan nan nan 19 nan nan 19 18 18 17 18 19 nan 17 16 nan nan nan nan nan nan nan nan nan nan nan nan nan nan nan nan nan nan nan nan nan nan
nan nan nan nan nan nan nan nan nan nan nan nan nan nan nan nan nan nan nan nan nan nan nan nan nan nan nan nan nan nan nan nan nan nan nan nan nan nan nan nan nan nan nan
nan nan nan nan nan nan nan nan nan nan nan nan nan nan nan nan nan nan nan nan nan nan nan nan nan nan nan nan nan nan nan nan nan nan nan nan nan nan nan nan nan nan nan
nan nan nan nan nan nan nan nan nan nan nan nan nan nan nan nan nan nan nan nan nan nan nan nan 27 26 nan nan nan nan nan nan nan nan nan nan nan nan nan nan nan nan nan
nan nan nan nan nan nan nan nan nan nan nan 19 18 21 25 nan nan nan nan nan nan 27 30 33 34 29 28 nan nan nan nan nan nan nan nan nan nan nan nan nan nan nan nan
nan nan nan nan nan nan nan nan nan 20 18 18 18 20 22 nan nan 27 32 35 35 nan 31 33 33 34 33 33 nan nan nan nan nan nan nan nan nan nan nan nan nan nan nan
nan nan nan nan nan nan nan nan 19 21 23 24 25 26 nan nan nan nan nan nan nan nan nan 38 36 34 34 35 nan nan nan nan nan nan nan nan nan nan nan nan nan nan nan
nan nan nan nan nan nan nan 24 25 28 30 32 29 nan nan nan nan nan nan nan nan nan nan nan nan nan nan nan nan nan nan nan nan nan nan nan nan nan nan nan nan nan nan
nan nan nan nan nan nan 25 29 32 33 34 34 33 nan nan nan nan nan nan nan nan nan nan nan nan nan nan nan nan nan nan nan nan nan nan nan nan nan nan nan nan nan nan
nan nan 20 22 24 25 25 29 30 nan nan nan nan nan nan nan nan nan nan nan nan nan nan nan nan nan nan nan nan nan nan nan nan nan nan nan nan nan nan nan nan nan nan
nan nan 24 24 25 28 27 30 35 nan nan nan nan nan nan nan nan nan nan nan nan nan nan nan nan nan nan nan nan nan nan nan nan nan nan nan nan nan nan nan nan nan nan
nan 20 22 24 27 nan nan nan nan nan nan nan nan nan nan nan nan nan nan nan nan nan nan nan nan nan nan nan nan nan nan nan nan nan nan nan nan nan nan nan nan nan nan
Wind_Direction
nan nan nan nan nan nan nan nan 268 309 325 317 nan nan nan nan nan nan nan nan nan nan nan nan nan nan nan nan nan nan nan nan nan nan nan nan nan nan nan nan nan nan nan
nan nan nan 286 nan nan nan nan nan 301 294 295 nan nan nan nan nan nan nan nan nan nan nan nan nan nan nan nan nan nan nan nan nan nan nan nan nan nan nan nan nan nan nan
nan nan nan 305 308 319 317 308 299 294 293 nan nan nan nan nan nan nan nan nan nan nan nan nan nan nan nan nan nan nan nan nan nan nan nan nan nan nan nan nan nan nan nan
311 308 313 316 310 316 315 308 nan nan nan nan nan nan nan nan nan nan nan nan nan nan nan nan nan nan nan nan nan nan nan nan nan nan nan nan nan nan nan nan nan nan nan
304 308 313 309 nan nan nan nan nan nan nan nan nan nan nan nan nan nan nan nan nan nan nan nan nan nan nan nan nan nan nan nan nan nan nan nan nan nan nan nan nan nan nan
nan nan nan nan nan nan nan nan nan nan nan nan nan nan nan nan nan nan nan nan nan nan nan nan nan nan nan nan nan nan nan nan nan nan nan nan nan nan nan nan nan nan nan
nan nan nan nan nan nan nan nan nan nan nan nan nan nan nan nan nan nan nan nan nan nan nan nan nan nan nan nan nan nan nan nan nan nan nan nan nan nan nan nan nan nan nan
nan nan nan nan nan nan nan nan nan nan nan nan nan nan nan nan nan nan nan nan nan nan nan nan nan nan nan nan nan nan nan nan nan nan nan nan nan nan nan nan nan nan nan
nan nan nan nan nan nan nan nan nan nan nan 307 303 304 304 292 282 nan nan 269 273 276 nan nan nan nan nan nan nan nan nan nan nan nan nan nan nan nan nan nan nan nan nan
nan nan nan nan nan nan 322 318 316 313 313 315 326 331 328 319 296 289 nan 277 278 279 278 nan nan nan nan nan nan nan nan nan nan nan nan nan nan nan nan nan nan nan nan
nan nan nan nan nan 316 319 317 313 312 318 327 339 339 340 332 316 295 nan 283 280 279 283 nan nan nan nan nan nan nan nan nan nan nan nan nan nan nan nan nan nan nan nan
nan nan nan nan nan nan 316 317 318 325 333 339 347 346 339 341 336 327 nan nan nan 299 298 288 nan nan nan nan nan nan nan nan nan nan nan nan nan nan nan nan nan nan nan
nan nan nan nan 324 321 325 327 329 333 334 343 nan 349 335 328 316 320 318 nan nan nan nan nan nan nan nan nan nan nan nan nan nan nan nan nan nan nan nan nan nan nan nan
nan nan nan nan 344 341 nan nan nan nan nan nan 347 348 343 339 324 320 314 308 nan nan nan nan nan nan nan nan nan nan nan nan nan nan nan nan nan nan nan nan nan nan nan
nan nan nan nan nan nan nan nan nan 346 nan nan 338 340 342 338 326 320 nan 305 300 nan nan nan nan nan nan nan nan nan nan nan nan nan nan nan nan nan nan nan nan nan nan
nan nan nan nan nan nan nan nan nan nan nan nan nan nan nan nan nan nan nan nan nan nan nan nan nan nan nan nan nan nan nan nan nan nan nan nan nan nan nan nan nan nan nan
nan nan nan nan nan nan nan nan nan nan nan nan nan nan nan nan nan nan nan nan nan nan nan nan nan nan nan nan nan nan nan nan nan nan nan nan nan nan nan nan nan nan nan
nan nan nan nan nan nan nan nan nan nan nan nan nan nan nan nan nan nan nan nan nan nan nan nan 337 335 nan nan nan nan nan nan nan nan nan nan nan nan nan nan nan nan nan
nan nan nan nan nan nan nan nan nan nan nan 335 331 335 339 nan nan nan nan nan nan 323 324 328 329 330 331 nan nan nan nan nan nan nan nan nan nan nan nan nan nan nan nan
nan nan nan nan nan nan nan nan nan 342 338 338 337 333 324 nan nan 322 319 320 318 nan 313 313 313 313 314 315 nan nan nan nan nan nan nan nan nan nan nan nan nan nan nan
nan nan nan nan nan nan nan nan 337 335 336 336 337 337 nan nan nan nan nan nan nan nan nan 304 304 301 304 307 nan nan nan nan nan nan nan nan nan nan nan nan nan nan nan
nan nan nan nan nan nan nan 332 333 337 339 335 329 nan nan nan nan nan nan nan nan nan nan nan nan nan nan nan nan nan nan nan nan nan nan nan nan nan nan nan nan nan nan
nan nan nan nan nan nan 331 331 332 332 329 326 322 nan nan nan nan nan nan nan nan nan nan nan nan nan nan nan nan nan nan nan nan nan nan nan nan nan nan nan nan nan nan
nan nan 354 350 345 340 337 338 333 nan nan nan nan nan nan nan nan nan nan nan nan nan nan nan nan nan nan nan nan nan nan nan nan nan nan nan nan nan nan nan nan nan nan
nan nan 341 335 339 337 332 327 326 nan nan nan nan nan nan nan nan nan nan nan nan nan nan nan nan nan nan nan nan nan nan nan nan nan nan nan nan nan nan nan nan nan nan
nan 340 338 335 333 nan nan nan nan nan nan nan nan nan nan nan nan nan nan nan nan nan nan nan nan nan nan nan nan nan nan nan nan nan nan nan nan nan nan nan nan nan nan